Temp
41 43 46 53 55 55 55 57 57 56 58 58 58 57 56 55 53 51 51 50 51 54
39 40 42 46 51 54 54 55 56 57 58 58 58 58 57 56 55 52 51 51 51 51
35 39 41 44 47 53 54 55 55 55 56 57 57 57 57 56 56 54 52 52 52 53
34 35 39 42 45 52 53 53 53 52 54 55 55 55 54 55 55 54 54 54 54 53
33 33 36 41 44 48 51 53 53 52 53 54 54 53 54 54 54 54 53 53 53 53
32 32 33 38 42 48 49 50 49 51 52 53 54 54 54 53 53 53 52 53 52 52
32 32 33 37 40 43 48 48 48 51 52 52 53 53 53 52 52 52 52 52 52 51
32 32 34 36 38 41 44 47 46 49 51 52 52 51 50 49 49 49 49 49 50 51
33 31 33 34 36 38 41 45 45 48 50 50 50 49 49 49 48 48 48 48 49 48
32 32 32 32 35 37 39 43 44 47 49 48 48 48 49 48 48 47 48 48 48 48
31 31 31 32 33 36 38 43 44 46 48 47 47 48 48 48 47 46 47 47 47 47
31 29 30 30 32 35 37 42 43 46 46 46 46 47 47 47 45 46 46 47 48 48
30 29 29 30 32 34 37 42 43 44 45 46 46 46 47 46 45 44 44 45 46 47
29 28 30 31 33 35 40 40 40 40 42 43 45 45 46 45 44 43 43 43 44 45
MSLP
1020.57 1018.93 1017.46 1015.62 1014.88 1014.73 1014.56 1014.32 1014.27 1014.31 1014.39 1014.46 1014.38 1014.65 1014.82 1015.28 1015.59 1015.70 1015.78 1015.89 1015.87 1015.78
1020.51 1019.41 1018.14 1016.42 1015.41 1014.75 1014.38 1014.20 1013.87 1013.73 1013.63 1013.63 1013.73 1013.96 1014.25 1014.52 1014.73 1014.90 1015.10 1015.07 1015.15 1015.16
1020.66 1019.60 1018.40 1016.82 1015.67 1014.60 1014.11 1013.77 1013.54 1013.36 1013.22 1013.05 1013.10 1013.21 1013.45 1013.65 1013.82 1014.01 1014.21 1014.28 1014.37 1014.32
1020.32 1019.81 1018.60 1016.58 1015.49 1013.99 1013.64 1013.36 1013.05 1012.96 1012.90 1012.67 1012.56 1012.46 1012.64 1012.73 1012.64 1012.85 1013.16 1013.34 1013.29 1013.33
1020.61 1019.97 1018.52 1016.58 1015.00 1014.05 1013.23 1012.94 1012.48 1012.22 1012.12 1011.87 1011.76 1011.77 1011.74 1011.78 1011.72 1011.76 1012.06 1012.19 1012.32 1012.49
1020.39 1020.04 1017.71 1015.92 1014.65 1013.54 1012.69 1012.27 1011.98 1011.59 1011.16 1010.88 1010.60 1010.67 1010.66 1010.77 1010.80 1010.83 1011.02 1011.26 1011.44 1011.76
1020.57 1018.98 1017.20 1015.02 1014.83 1013.68 1012.34 1011.86 1011.34 1010.57 1010.34 1010.00 1009.86 1009.71 1009.62 1009.76 1009.91 1010.00 1010.19 1010.38 1010.62 1010.92
1019.27 1018.41 1016.77 1015.15 1014.75 1013.29 1012.38 1011.34 1010.65 1010.36 1009.69 1009.22 1009.00 1008.83 1008.97 1009.15 1009.36 1009.32 1009.51 1009.76 1010.01 1010.08
1018.44 1017.48 1016.06 1014.85 1014.18 1013.00 1011.81 1010.64 1010.01 1009.58 1008.77 1008.29 1008.23 1008.26 1008.37 1008.61 1008.86 1008.89 1008.98 1009.06 1009.15 1009.30
1017.69 1016.60 1015.76 1014.22 1013.22 1012.19 1010.69 1009.17 1009.52 1008.67 1007.66 1007.49 1007.51 1007.58 1007.86 1008.09 1008.32 1008.39 1008.30 1008.28 1008.26 1008.18
1016.48 1015.31 1014.03 1013.81 1013.23 1011.71 1010.40 1009.58 1008.80 1007.77 1006.90 1006.97 1007.01 1007.28 1007.44 1007.60 1007.78 1007.75 1007.47 1007.21 1007.07 1007.08
1015.42 1014.80 1014.38 1013.54 1012.29 1011.01 1010.03 1008.85 1007.98 1007.16 1006.37 1006.37 1006.54 1006.80 1007.07 1007.24 1007.12 1006.91 1006.42 1006.07 1005.83 1005.65
1015.40 1014.73 1013.80 1012.77 1011.74 1010.49 1009.52 1008.09 1007.55 1006.65 1005.88 1005.90 1006.26 1006.55 1006.71 1006.78 1006.56 1006.18 1005.76 1005.32 1004.85 1004.32
1014.77 1013.93 1012.93 1011.91 1010.47 1009.31 1008.30 1007.79 1007.13 1006.52 1006.05 1006.11 1006.13 1006.35 1006.50 1006.39 1006.24 1005.92 1005.57 1005.21 1004.74 1004.37
Wind_Speed
19 12 12 10 4 4 5 6 7 6 7 8 8 7 8 6 6 6 6 7 6 6
18 19 15 15 13 5 6 7 9 10 10 10 9 10 8 7 8 7 8 8 8 7
17 18 18 13 13 11 6 6 7 9 10 9 9 10 11 11 10 10 8 7 9 8
16 18 19 14 13 10 8 7 6 7 10 11 11 12 12 13 13 12 12 11 10 11
16 18 18 15 14 14 10 10 9 8 12 13 13 12 14 14 12 13 13 12 10 10
16 18 15 17 16 15 11 11 10 11 11 12 12 12 13 13 13 13 12 11 10 10
18 18 16 16 17 16 13 11 11 11 12 11 11 12 14 13 12 11 10 10 10 10
17 19 17 14 17 16 14 13 11 13 12 11 10 9 10 8 8 7 8 8 10 11
17 17 17 14 17 16 13 13 10 12 12 11 9 12 13 9 7 8 9 10 11 11
16 17 16 15 18 17 15 12 13 13 10 10 8 11 10 11 6 8 10 12 13 13
16 17 16 17 17 15 13 13 12 13 9 7 5 8 10 11 7 9 13 14 15 16
16 18 17 18 17 15 14 12 11 11 8 7 5 8 10 9 7 10 12 11 13 15
16 16 18 17 17 15 15 9 8 8 5 7 5 6 9 8 4 7 6 5 6 14
16 16 16 17 14 13 9 6 4 2 3 2 3 3 4 2 2 2 1 1 3 5
Wind_Direction
327 325 318 326 283 266 259 249 240 227 216 218 208 210 205 210 219 215 219 217 227 237
329 323 316 317 312 275 257 258 255 247 243 236 216 212 218 226 224 218 219 216 218 224
319 322 311 306 297 288 268 259 257 254 251 237 228 225 223 224 222 219 223 220 218 222
324 313 307 302 297 292 290 270 250 261 263 245 235 226 224 226 215 215 224 219 214 224
311 308 307 300 306 297 291 280 267 256 260 251 238 227 223 224 216 214 220 223 218 225
308 296 304 304 313 295 291 287 272 263 262 256 240 231 226 222 221 217 216 218 218 226
296 303 303 316 308 298 296 278 274 271 260 254 244 237 228 220 220 214 214 216 220 222
301 299 300 310 301 295 292 282 274 271 254 252 244 230 213 203 206 209 215 221 228 230
301 298 301 306 297 290 289 277 273 271 253 245 230 210 202 199 213 218 227 235 233 236
298 296 297 304 301 298 297 304 284 277 255 232 208 195 217 226 229 234 239 244 244 243
296 301 310 298 291 293 296 282 285 286 226 198 194 216 223 235 243 250 249 244 243 240
303 300 298 293 295 295 290 280 284 281 205 192 197 212 235 250 251 252 253 249 242 235
293 289 290 291 287 285 273 276 274 264 225 197 195 216 246 253 250 260 250 249 245 229
286 284 286 281 282 281 273 265 278 38 35 109 153 200 234 258 255 287 241 353 67 79